Location: �couen
(49.0206°N, 2.3831°E)
Time: 22:56:02
(UTC+00:00)

ATLAS 3B R/B - Pass Details

Date: 30 May 2022
Orbit: 976 x 1218 km, 63.8° (Epoch: 20 June)

Event Time Altitude Azimuth Distance (km) Brightness Sun altitude
Rises 23:20:40 0° 305° (NW) 4,018 6.3 -18.8°
Reaches altitude 10° 23:25:42 10° 276° (W) 3,103 5.2 -18.9°
Maximum altitude 23:27:55 12° 258° (WSW) 3,003 5.0 -19.0°
Drops below altitude 10° 23:30:09 10° 241° (WSW) 3,133 4.9 -19.0°
Enters shadow 23:31:43 - 230° (SW) 3,348 5.0 -19.0°
